DW6102 Weather Reports


Display with metric or nautical units.
time (UTC)temp
F
wind
direction
speed
MPH
gust
MPH
rain 1hr
in
rain 24hr
in
rain mn
in
humidity
%
barometer
mb
20260507143101 74 311 0.0 1.0 0.00 0.00 0.00 32 1009.5
20260507141555 71 311 0.0 1.0 0.00 0.00 0.00 35 1009.4
20260507140032 68 309 0.0 0.0 0.00 0.00 0.00 39 1009.4
20260507134532 63 309 0.0 1.0 0.00 0.00 0.00 44 1009.3
20260507133012 61 308 0.0 0.0 0.00 0.00 0.00 47 1009.1
20260507131511 60 307 0.0 1.0 0.00 0.00 0.00 45 1009.0
20260507130106 59 307 0.0 0.0 0.00 0.00 0.00 48 1009.0
20260507124551 59 307 0.0 0.0 0.00 0.00 0.00 47 1008.9
20260507123040 59 308 0.0 1.0 0.00 0.00 0.00 47 1008.9
20260507121536 60 308 0.0 0.0 0.00 0.00 0.00 44 1009.0
20260507120044 61 308 0.0 0.0 0.00 0.00 0.00 46 1008.9
20260507114601 60 308 0.0 1.0 0.00 0.00 0.00 49 1008.9
20260507113031 60 307 0.0 0.0 0.00 0.00 0.00 52 1008.7
20260507111534 61 308 0.0 0.0 0.00 0.00 0.00 49 1008.8
20260507110028 61 307 0.0 0.0 0.00 0.00 0.00 48 1008.8
20260507104526 61 308 0.0 0.0 0.00 0.00 0.00 47 1008.8
20260507103009 61 308 0.0 0.0 0.00 0.00 0.00 49 1008.9
20260507101512 62 307 0.0 0.0 0.00 0.00 0.00 48 1009.1
20260507100104 63 307 0.0 0.0 0.00 0.00 0.00 42 1009.2
20260507094544 63 307 0.0 0.0 0.00 0.00 0.00 44 1009.3
20260507093048 62 307 0.0 0.0 0.00 0.00 0.00 44 1009.3
20260507091530 62 307 0.0 0.0 0.00 0.00 0.00 44 1009.4
20260507090029 63 308 0.0 0.0 0.00 0.00 0.00 43 1009.3
20260507084504 63 307 0.0 0.0 0.00 0.00 0.00 41 1009.3
20260507083004 62 307 0.0 0.0 0.00 0.00 0.00 45 1009.3
20260507081546 63 308 0.0 0.0 0.00 0.00 0.00 47 1009.4
20260507080045 64 307 0.0 0.0 0.00 0.00 0.00 46 1009.6
20260507074522 64 308 0.0 0.0 0.00 0.00 0.00 45 1009.6
20260507073018 65 307 0.0 0.0 0.00 0.00 0.00 43 1009.7
20260507071602 65 308 0.0 0.0 0.00 0.00 0.00 45 1009.6
20260507070058 65 307 0.0 0.0 0.00 0.00 0.00 45 1009.6
20260507064539 65 307 0.0 0.0 0.00 0.00 0.00 43 1009.5
20260507063038 66 308 0.0 0.0 0.00 0.00 0.00 41 1009.4
20260507061521 67 307 0.0 0.0 0.00 0.00 0.00 42 1009.4
20260507060020 66 307 0.0 0.0 0.00 0.00 0.00 40 1009.4
20260507054506 67 308 0.0 0.0 0.00 0.00 0.00 36 1009.5
20260507053002 67 307 0.0 0.0 0.00 0.00 0.00 36 1009.4
20260507051544 68 307 0.0 0.0 0.00 0.00 0.00 36 1009.4
20260507050043 68 307 0.0 0.0 0.00 0.00 0.00 33 1009.3
20260507044526 69 308 0.0 0.0 0.00 0.00 0.00 37 1009.2
20260507043026 69 307 0.0 0.0 0.00 0.00 0.00 38 1009.1
20260507041509 70 307 0.0 0.0 0.00 0.00 0.00 33 1009.0
20260507040010 71 307 0.0 0.0 0.00 0.00 0.00 30 1008.8
20260507034555 72 308 0.0 0.0 0.00 0.00 0.00 29 1008.6
20260507033053 73 307 0.0 0.0 0.00 0.00 0.00 27 1008.5
20260507031531 74 307 0.0 0.0 0.00 0.00 0.00 26 1008.3
20260507030031 76 308 0.0 0.0 0.00 0.00 0.00 24 1008.1
20260507024514 78 309 0.0 0.0 0.00 0.00 0.00 22 1008.0
20260507023013 78 309 0.0 1.0 0.00 0.00 0.00 22 1007.8
20260507021555 80 309 0.0 1.0 0.00 0.00 0.00 20 1007.6
20260507020109 82 215 0.0 3.0 0.00 0.00 0.00 18 1007.6
20260507014536 84 263 1.0 4.0 0.00 0.00 0.00 17 1007.5
20260507013047 85 321 0.0 2.0 0.00 0.00 0.00 17 1007.5
20260507011519 86 205 0.0 2.0 0.00 0.00 0.00 16 1007.6
20260507010024 86 188 0.0 2.0 0.00 0.00 0.00 17 1007.6
20260507004504 86 271 1.0 3.0 0.00 0.00 0.00 16 1007.6
20260507003000 85 44 1.0 4.0 0.00 0.00 0.00 17 1007.6
20260507001600 85 274 0.0 4.0 0.00 0.00 0.00 17 1007.5
20260506234556 86 333 0.0 3.0 0.00 0.00 0.00 18 1007.6
20260506233109 86 277 0.0 2.0 0.00 0.00 0.00 18 1007.8
20260506231557 85 330 0.0 2.0 0.00 0.00 0.00 17 1007.9
20260506230052 85 259 0.0 4.0 0.00 0.00 0.00 18 1008.2
20260506224533 84 260 1.0 5.0 0.00 0.00 0.00 18 1008.3
20260506223036 84 37 0.0 5.0 0.00 0.00 0.00 18 1008.5
20260506221509 84 142 1.0 5.0 0.00 0.00 0.00 17 1008.7
20260506220008 84 255 1.0 6.0 0.00 0.00 0.00 19 1008.8
20260506214554 84 234 1.0 5.0 0.00 0.00 0.00 18 1009.1
20260506213109 85 116 1.0 5.0 0.00 0.00 0.00 20 1009.3
20260506211530 84 54 0.0 4.0 0.00 0.00 0.00 19 1009.6
20260506210028 84 49 1.0 4.0 0.00 0.00 0.00 20 1009.9
20260506204509 84 304 1.0 4.0 0.00 0.00 0.00 20 1010.0
20260506203007 83 255 1.0 3.0 0.00 0.00 0.00 21 1010.1
20260506201547 83 165 1.0 3.0 0.00 0.00 0.00 20 1010.3
20260506200047 82 44 1.0 3.0 0.00 0.00 0.00 21 1010.5
20260506194528 81 45 0.0 3.0 0.00 0.00 0.00 24 1010.5
20260506193027 82 145 0.0 5.0 0.00 0.00 0.00 23 1010.7
20260506191508 80 298 1.0 4.0 0.00 0.00 0.00 24 1011.0
20260506190013 81 320 1.0 3.0 0.00 0.00 0.00 23 1011.1
20260506184554 80 115 0.0 4.0 0.00 0.00 0.00 25 1011.3
20260506183057 80 325 0.0 3.0 0.00 0.00 0.00 28 1011.6
20260506181615 78 105 0.0 3.0 0.00 0.00 0.00 25 1011.8
20260506180048 78 120 1.0 5.0 0.00 0.00 0.00 25 1011.9
20260506174546 79 288 1.0 4.0 0.00 0.00 0.00 27 1012.0
20260506173056 77 345 0.0 3.0 0.00 0.00 0.00 28 1012.0
20260506171541 77 64 0.0 4.0 0.00 0.00 0.00 29 1012.0
20260506170040 75 345 0.0 3.0 0.00 0.00 0.00 31 1011.9
20260506164539 75 293 1.0 2.0 0.00 0.00 0.00 31 1012.0
20260506163038 74 272 0.0 3.0 0.00 0.00 0.00 34 1012.0
20260506161516 74 136 0.0 2.0 0.00 0.00 0.00 31 1011.9
20260506160013 72 90 1.0 2.0 0.00 0.00 0.00 34 1012.0
20260506154555 71 86 1.0 3.0 0.00 0.00 0.00 34 1012.0
20260506153108 71 156 0.0 2.0 0.00 0.00 0.00 36 1012.0
20260506151532 70 103 0.0 1.0 0.00 0.00 0.00 38 1012.0
20260506150032 68 113 0.0 1.0 0.00 0.00 0.00 40 1012.0
20260506144514 67 93 0.0 2.0 0.00 0.00 0.00 40 1011.9